User: anonymous   Login
Location: Unspecified
(0.0000°N, 0.0000°E)
Time: 03:33:30
(UTC+00:00)
Language:

USA 103 - Orbit

View from above orbital plane
View from above orbital plane
View from above satellite
View from above satellite

Ground track
Ground track

The orbit data is extracted from the following two-line orbital elements,

1 23097U 94026A   17146.78042181 0.00000000  00000-0  00000-0 0    05
2 23097  64.0150 140.6665 6469051 264.7439  23.9044  2.00606500    04
Epoch (UTC): 26 May 2017 18:43:48
Eccentricity: 0.6469051
inclination: 64.0150°
perigee height: 2999 km
apogee height: 37357 km
right ascension of ascending node: 140.6665°
argument of perigee: 264.7439°
revolutions per day: 2.00606500
mean anomaly at epoch: 23.9044°
orbit number at epoch: 0

The dashed part of the orbit path shows where the satellite is in the earth's shadow,  

DLR